Theta_e
317 318 318 318 320 321 322 322 322 321 321 321 322 323 322 321 321 323 324 323 324 323 323 322 321 322 318 319 319 319 322 326 323 322 322 323 326 325 326 323 321 322 332 325 321 324 323 321 320 322 321 324 323 321 321 322 323 322 322 324 324 322 324 324 325 326 324 322 323 323 324 326 327 325 324 325 324 326 328 327 328 327 325 324 321
317 318 319 320 320 319 320 322 325 323 322 322 322 322 321 320 320 322 322 323 322 322 322 322 321 321 321 321 320 319 320 320 318 320 323 327 325 324 326 323 321 321 326 328 325 322 321 320 320 319 321 322 325 324 325 325 319 320 320 321 321 322 322 324 325 323 320 320 319 318 321 324 325 324 323 323 324 326 326 326 326 326 324 321 320
314 316 317 318 318 318 318 319 321 320 321 320 320 321 322 322 321 320 321 321 322 323 327 324 321 321 321 321 320 319 319 321 321 322 324 324 322 322 325 323 321 321 321 330 323 321 319 319 320 318 319 325 319 318 318 319 318 318 320 320 320 321 324 326 325 323 319 319 318 317 314 315 320 323 324 324 324 325 325 325 326 324 320 320 319
313 312 315 316 316 316 317 318 318 318 320 321 321 321 323 325 322 322 323 322 321 322 330 327 325 323 323 322 320 320 320 328 321 321 322 322 323 323 324 323 322 320 321 322 323 317 318 318 318 318 320 322 316 319 318 318 317 319 319 322 319 318 319 320 327 322 321 321 316 314 315 315 312 315 318 322 326 324 324 324 323 320 319 317 317
311 313 315 315 316 316 316 318 316 318 318 318 319 320 323 321 322 321 321 322 322 324 323 322 325 320 318 319 321 320 320 318 321 322 321 324 329 325 326 322 323 322 321 319 329 320 316 317 318 318 319 319 319 317 318 319 318 317 318 320 319 319 318 317 320 325 321 323 320 314 312 311 312 315 318 317 323 322 323 323 323 320 317 315 313
314 314 314 315 315 316 316 317 318 318 319 320 318 320 319 322 322 321 321 321 321 321 322 322 322 321 320 321 320 318 319 320 320 321 323 323 323 322 322 322 322 323 321 318 320 325 318 318 318 318 319 323 321 318 318 317 317 317 317 318 319 319 319 317 317 323 324 326 321 319 318 315 313 317 315 310 318 322 322 321 319 317 314 312 311
313 313 313 314 314 315 316 316 316 318 321 321 320 319 320 321 320 319 319 322 324 322 321 328 320 320 322 321 320 319 318 319 318 319 320 322 321 321 322 322 322 321 321 319 318 324 320 319 319 319 321 319 327 317 318 319 317 317 322 317 318 321 317 318 317 318 319 322 322 322 322 323 321 317 311 312 311 316 319 318 315 312 310 309 308
314 314 315 315 315 315 315 316 316 319 319 321 321 321 321 321 320 320 319 322 321 320 322 321 323 320 320 319 322 321 320 321 322 323 323 325 323 322 321 322 323 323 321 319 318 321 322 319 319 320 320 321 326 319 319 318 319 319 323 317 317 319 319 320 319 317 318 318 322 319 322 322 320 317 319 316 314 310 310 312 312 310 307 306 305
313 315 315 316 316 317 316 317 318 319 319 320 322 322 320 320 322 322 322 320 321 322 324 321 324 324 320 318 318 320 321 323 323 324 323 321 320 321 321 321 322 322 322 320 317 319 327 321 319 319 319 320 329 319 319 320 319 318 317 317 316 315 318 320 318 317 315 316 317 317 317 317 318 318 317 316 315 311 310 309 306 309 307 304 303
314 314 314 316 316 316 317 318 320 319 319 321 322 320 321 320 322 323 323 321 322 322 322 322 321 322 319 318 318 319 320 321 320 321 320 319 319 320 320 320 321 322 321 320 318 318 321 323 320 319 320 320 325 318 317 317 317 317 319 318 318 314 315 318 316 317 317 317 317 315 316 317 318 317 314 315 316 315 311 309 308 307 304 301 303
315 316 315 315 314 315 316 317 317 319 319 320 321 321 321 322 321 323 323 322 323 323 323 322 322 321 321 320 320 320 321 321 321 321 321 321 320 320 320 320 320 320 321 321 320 318 319 322 321 320 320 325 327 317 317 316 316 316 316 318 319 315 313 315 320 317 317 317 316 317 318 318 317 315 315 314 314 311 311 310 311 309 302 298 301
316 317 317 317 319 319 318 318 318 318 319 320 321 322 322 323 322 322 324 323 323 323 322 322 322 322 321 321 321 321 321 321 320 320 320 320 320 320 320 319 320 320 320 320 320 320 319 320 323 321 322 322 322 318 317 316 316 315 316 317 315 314 313 319 316 317 316 316 316 317 317 317 315 317 316 317 315 313 313 311 307 302 301 300 301
315 315 316 317 317 318 318 319 319 319 319 320 321 322 322 323 322 322 323 323 323 322 322 322 321 321 321 321 321 322 322 321 320 319 320 320 320 320 320 320 320 320 320 320 321 321 319 319 320 319 319 320 320 318 318 317 316 315 315 315 314 314 314 315 315 314 316 318 318 316 318 317 319 317 316 317 315 315 313 309 305 305 301 298 300
313 313 315 315 316 318 318 318 319 319 320 320 321 322 321 321 321 321 321 322 322 322 322 321 322 321 321 321 321 321 321 322 321 320 321 321 320 320 320 320 320 320 320 321 322 322 320 319 320 320 320 320 320 318 318 318 315 314 315 313 314 314 313 314 315 315 314 316 316 316 316 316 318 318 317 316 315 313 311 309 305 302 300 298 302
312 313 314 314 315 315 317 318 318 318 319 319 319 319 319 319 319 320 320 321 321 322 321 321 321 321 322 322 322 322 322 322 322 322 322 321 322 321 321 321 320 321 321 322 323 322 321 319 319 318 319 318 319 320 319 317 316 314 315 313 315 313 314 316 315 315 314 314 314 315 316 314 316 317 316 317 316 315 312 309 305 300 299 300 301
311 312 313 314 314 315 316 317 317 318 318 318 318 317 318 319 319 319 319 320 321 322 321 321 321 322 322 322 322 323 324 323 322 323 323 322 322 322 322 322 321 321 321 322 322 322 322 320 320 320 319 318 318 319 317 316 315 314 314 314 314 317 314 314 313 313 313 313 315 313 316 316 316 316 316 317 317 315 313 310 308 306 301 298 299
308 309 310 311 313 314 315 315 316 317 318 317 317 316 316 318 319 319 319 320 320 321 320 320 320 320 320 321 321 322 322 321 322 322 323 324 324 323 322 322 322 322 322 323 322 322 320 319 319 319 319 317 317 317 316 315 314 314 314 312 313 313 314 313 313 313 314 315 314 315 317 317 316 316 317 317 317 316 313 311 310 308 307 302 297
306 307 308 308 309 311 313 314 315 316 317 316 316 316 316 317 318 318 318 318 319 319 320 319 319 319 319 320 320 321 321 321 322 322 323 323 323 323 324 323 323 323 323 323 323 322 320 320 319 317 317 316 316 316 315 315 314 314 313 313 313 312 313 312 311 313 313 315 316 314 315 317 317 317 317 315 317 316 313 311 310 310 309 305 301
306 306 307 307 307 308 308 310 312 315 317 316 316 316 316 316 318 317 317 318 318 319 319 319 319 318 319 319 319 320 320 320 321 321 321 321 321 322 323 323 323 323 324 323 322 321 321 320 317 317 317 317 315 315 315 314 313 313 312 313 312 310 310 310 310 313 313 313 312 314 312 314 313 315 314 315 316 316 314 312 311 311 309 308 304
306 306 306 306 307 307 308 308 309 312 316 317 316 316 316 316 317 318 319 319 319 319 319 318 318 318 318 318 318 319 319 319 320 319 319 319 320 321 321 322 323 324 324 324 322 321 321 320 319 317 317 317 316 315 314 313 312 312 313 311 311 309 308 309 310 310 311 310 311 312 313 311 310 314 315 315 315 316 315 313 313 311 309 308 307
305 306 306 306 306 307 307 308 308 309 311 314 316 315 315 316 316 317 316 316 317 318 318 318 317 317 317 315 316 316 317 318 318 318 318 318 319 320 320 321 322 322 323 323 323 323 322 321 319 318 317 317 315 314 313 312 312 311 312 312 310 308 309 307 311 308 309 310 311 310 309 309 310 315 314 315 315 316 315 314 314 312 309 307 308
305 305 305 305 306 306 307 307 308 308 308 308 311 314 314 314 315 314 313 313 314 316 317 316 317 315 314 314 313 314 314 314 315 316 316 317 317 318 319 320 320 321 323 323 323 323 323 321 319 318 318 317 316 314 313 312 311 311 311 311 310 308 308 306 306 308 308 309 309 309 307 308 310 311 310 314 315 315 315 314 314 313 311 308 309
304 304 305 305 305 305 306 306 305 305 306 306 307 308 309 309 310 310 309 309 310 312 315 316 315 313 312 311 311 311 311 311 311 312 312 314 315 316 318 318 318 319 321 322 322 323 323 322 320 320 319 318 317 316 314 313 312 311 311 311 310 308 307 306 305 306 306 307 308 309 307 308 309 310 308 308 311 315 315 315 315 314 312 309 309
303 304 304 304 304 304 304 304 304 304 304 304 305 305 305 305 306 306 306 306 307 308 311 313 313 312 311 310 309 309 309 308 308 309 309 311 312 314 316 316 317 318 319 320 321 322 322 321 320 320 318 317 318 317 316 313 312 312 312 311 310 307 307 306 306 305 305 307 308 306 307 308 310 309 307 308 309 314 316 316 316 315 315 312 311
302 302 302 303 303 302 302 303 303 303 304 304 304 304 304 304 304 304 304 306 306 306 306 308 309 309 308 307 307 307 306 306 307 307 307 308 309 311 313 314 315 315 317 318 319 321 321 320 320 319 319 318 318 318 317 314 313 312 312 311 309 308 307 306 305 304 311 307 307 307 307 307 307 309 308 308 308 313 314 316 316 316 313 311 311
302 301 301 301 301 301 301 302 302 302 303 303 304 304 303 303 303 304 303 304 305 305 305 305 305 306 305 306 306 305 305 305 306 305 305 306 307 308 309 311 312 313 314 317 318 318 320 319 320 319 319 319 318 317 316 314 313 311 309 308 309 308 307 305 304 303 311 305 307 306 307 306 307 310 309 307 306 309 311 314 315 315 312 310 310
300 300 300 300 300 299 300 300 301 301 302 302 302 303 303 303 302 303 303 303 304 304 304 303 303 303 303 304 304 304 304 304 304 303 304 304 305 306 307 308 310 310 311 314 316 317 318 319 319 320 319 319 319 318 315 313 313 311 310 308 307 307 306 304 303 304 307 305 305 306 305 305 306 307 307 307 307 307 310 313 315 314 311 309 308
299 298 298 298 298 298 298 299 300 300 301 301 301 301 302 302 301 302 302 302 303 302 302 302 302 302 302 302 303 303 303 303 303 302 302 303 303 304 305 306 308 308 310 312 315 316 316 318 319 319 320 320 318 317 315 313 311 309 309 307 306 306 305 304 304 304 305 305 304 305 305 303 304 305 306 305 307 307 307 310 312 313 310 308 306
298 298 297 297 297 297 297 297 298 299 299 300 300 300 301 302 302 301 301 301 301 301 301 301 301 301 301 302 302 303 303 302 302 301 301 301 302 303 304 304 305 307 309 312 315 315 315 315 317 318 319 319 318 317 315 314 310 309 308 307 305 305 305 305 304 303 303 303 302 302 302 301 305 308 310 308 306 306 307 310 310 313 310 309 306
298 297 297 297 297 296 296 297 297 297 298 299 299 299 299 300 300 300 300 301 300 300 300 300 300 300 300 301 301 301 301 301 301 300 300 301 301 302 303 303 304 305 308 311 313 313 313 314 315 317 318 318 318 317 317 316 314 311 307 307 306 305 305 305 305 303 302 301 301 300 304 309 312 312 308 304 302 304 307 309 309 312 311 308 306
297 297 297 296 296 296 296 296 296 296 296 298 298 297 298 299 299 299 300 300 300 299 299 299 299 299 299 300 300 300 300 300 300 300 300 300 300 301 301 302 303 304 306 309 310 310 311 312 314 315 316 316 317 317 310 302 301 304 310 306 305 305 305 305 305 304 302 302 301 301 303 313 311 308 305 301 300 299 299 301 305 310 312 310 306
297 297 296 296 296 295 295 295 295 296 296 297 298 298 298 298 298 299 299 300 299 299 298 298 298 298 299 299 299 299 299 299 299 299 299 300 300 300 300 300 302 303 305 307 307 307 309 311 313 314 315 315 316 314 301 299 299 298 304 308 305 304 305 305 304 304 303 302 302 304 304 302 299 300 303 304 304 301 299 299 300 303 305 306 305
296 297 297 295 295 295 295 295 295 296 296 296 298 298 297 298 298 299 300 299 298 298 297 297 297 298 298 298 298 298 298 298 298 299 299 299 299 299 299 299 301 302 304 304 304 305 306 308 310 312 312 314 314 308 300 300 298 298 297 306 306 305 305 306 304 303 302 302 303 304 300 298 303 309 304 301 302 304 304 303 304 304 303 300 299
295 295 295 295 295 295 295 295 296 297 297 297 299 299 298 299 299 299 298 298 297 297 297 297 297 297 297 297 297 297 297 298 298 298 299 298 298 298 299 299 301 301 301 302 302 303 304 305 307 308 310 312 311 306 299 300 298 295 295 298 304 304 305 305 304 303 303 302 303 302 299 299 302 301 299 299 297 297 298 299 299 299 300 302 301
294 294 295 294 294 294 294 295 296 298 297 296 297 297 297 298 298 297 297 297 297 297 297 297 296 296 297 297 297 297 297 297 297 298 298 298 297 297 298 299 300 299 300 300 301 301 302 303 304 306 307 308 308 301 297 298 297 295 294 299 304 303 303 303 304 303 303 302 302 301 299 299 300 298 299 299 297 297 298 298 298 297 297 297 298
295 294 294 294 295 293 294 295 298 296 296 296 296 296 297 296 297 296 296 296 296 297 296 297 296 296 296 296 296 296 296 297 297 297 297 297 297 297 297 298 299 298 299 299 300 300 300 301 302 304 304 305 306 299 297 297 297 295 297 302 303 303 303 303 303 303 302 301 301 300 298 298 300 298 302 298 298 297 297 298 297 297 297 296 298
295 295 295 295 294 294 295 295 294 295 296 296 296 296 296 295 295 295 295 295 295 295 296 296 295 295 296 296 296 296 296 296 296 296 296 296 296 296 296 298 296 297 297 297 298 299 300 300 301 302 303 303 303 301 296 296 297 296 299 303 303 304 304 303 302 303 302 301 300 299 298 297 300 299 299 293 294 298 296 296 296 296 296 298 298
295 294 295 295 294 294 296 294 294 295 295 295 296 295 294 294 294 293 294 294 294 294 295 295 294 295 295 295 295 295 295 295 295 295 295 296 296 296 296 297 295 295 296 296 298 298 298 300 299 300 302 302 301 302 297 296 296 296 301 303 303 302 302 302 302 302 302 301 300 304 302 298 300 301 296 293 293 298 296 295 296 297 298 298 298
294 294 294 294 295 295 295 295 294 294 294 294 294 294 294 293 293 292 293 293 293 294 294 294 294 294 294 294 294 295 294 294 294 294 295 295 295 295 296 296 295 295 296 296 298 296 296 297 298 300 303 301 300 301 298 296 296 296 301 304 303 303 301 301 302 302 301 302 301 305 307 302 301 301 294 293 293 299 296 296 296 296 297 296 298
295 295 294 295 296 295 294 293 293 293 294 294 293 293 294 293 292 292 292 292 293 294 294 294 294 293 293 294 294 294 294 294 293 294 294 295 295 294 294 294 295 295 295 295 295 295 295 296 297 298 298 299 299 301 301 296 296 296 296 303 305 302 302 303 303 303 301 300 301 301 307 298 296 294 293 293 293 294 296 295 295 296 295 295 295
294 295 297 294 294 293 293 293 293 293 293 293 293 292 291 292 292 291 291 292 293 294 294 293 293 292 292 293 293 293 293 293 294 294 294 294 294 293 294 294 293 294 293 293 293 294 295 295 296 297 297 298 300 300 300 296 296 296 296 297 303 303 304 304 303 303 302 301 300 301 305 300 294 294 293 292 293 292 295 296 296 296 296 297 294
297 297 295 293 293 292 292 292 292 293 293 292 292 292 292 291 290 290 291 292 294 294 293 292 292 291 292 292 292 293 294 293 294 294 292 292 293 294 294 294 293 293 292 292 293 294 294 294 295 296 297 297 299 301 300 298 296 295 295 295 299 303 303 303 302 302 300 300 300 301 303 300 293 293 293 293 293 293 292 299 296 292 290 290 297
292 293 294 294 292 291 291 291 292 291 291 291 291 292 291 291 289 290 292 293 294 294 293 291 292 291 291 292 292 292 292 293 293 293 292 292 292 293 293 293 292 292 291 291 292 293 293 294 295 296 297 297 298 300 299 300 297 295 295 295 294 296 295 303 303 301 301 300 300 301 303 301 292 293 293 293 293 292 295 298 292 290 290 291 297
292 292 293 294 292 291 291 290 291 291 291 291 290 291 292 291 289 291 292 293 293 293 292 291 291 290 290 291 292 292 292 292 293 292 292 292 292 292 293 293 292 292 291 291 292 293 294 293 294 295 297 298 299 300 300 298 298 295 295 294 294 293 293 300 303 303 302 302 300 299 300 296 292 292 292 293 293 294 297 292 290 290 291 295 298
292 292 293 292 291 290 290 290 290 290 290 291 290 290 291 289 290 292 291 291 292 292 291 290 289 289 290 290 291 291 292 292 292 292 291 292 292 292 292 292 293 292 292 292 293 294 293 293 293 294 295 297 298 299 299 298 296 296 295 294 293 293 292 292 300 302 300 300 295 293 294 293 292 292 291 292 292 293 293 291 290 291 298 296 297
292 291 292 291 291 290 289 289 289 289 289 291 290 289 289 289 291 291 290 290 292 291 291 289 289 289 289 290 290 291 291 291 292 292 292 292 292 292 292 293 293 293 293 292 292 293 293 293 293 294 295 296 297 297 297 297 298 298 297 295 294 294 295 295 298 297 293 292 292 292 292 291 292 292 295 296 296 297 292 291 291 296 297 296 296
291 291 292 291 290 290 290 290 289 288 289 290 289 290 290 290 291 290 290 290 291 291 290 289 288 288 289 290 289 291 291 291 292 292 292 292 292 292 292 293 292 292 292 292 292 292 291 291 292 292 294 295 295 295 295 295 295 295 296 297 297 299 298 296 298 299 298 296 295 295 292 291 292 292 293 294 296 294 295 295 297 298 295 296 296
291 292 291 290 289 289 289 289 290 288 288 289 289 289 289 289 290 290 289 289 290 290 288 287 288 288 289 290 290 292 292 290 291 291 291 291 292 292 292 292 292 292 291 291 291 291 290 290 290 291 292 293 293 293 293 293 293 294 295 296 297 299 299 298 298 299 296 296 294 293 293 294 294 294 295 294 294 294 293 294 296 295 294 295 297
291 290 290 289 290 290 289 290 289 288 288 288 288 289 289 289 289 289 288 288 290 290 289 287 288 288 288 290 290 290 290 290 290 290 291 291 291 292 292 292 294 295 293 292 292 291 291 290 290 291 291 290 291 291 292 292 292 291 293 294 294 295 298 299 300 295 297 296 294 293 293 292 292 293 293 293 293 294 293 293 294 294 294 296 298
291 291 290 292 291 290 290 289 288 288 289 289 288 288 289 289 289 288 288 288 289 289 287 287 288 287 288 288 289 289 290 290 289 289 290 291 292 292 292 292 292 294 292 291 291 291 290 290 290 291 292 290 290 291 291 291 291 291 292 292 292 292 292 296 295 293 297 295 293 292 292 292 292 292 292 292 292 293 293 293 292 291 293 295 296
291 289 289 289 289 291 290 289 288 289 289 289 288 287 287 287 287 287 287 287 286 288 287 286 288 287 287 288 288 288 289 288 288 288 289 289 290 291 291 291 291 292 291 290 290 290 290 289 290 289 291 291 290 290 290 291 291 291 292 292 293 292 292 292 292 295 296 296 294 293 292 293 293 292 292 292 292 292 293 293 292 291 292 294 293
Wind_Speed
4 3 3 4 4 3 3 3 3 2 3 3 3 3 3 2 3 4 4 3 4 5 4 3 3 6 2 3 2 3 3 2 3 4 4 3 3 2 2 3 3 3 1 2 3 3 3 3 3 3 3 3 3 3 3 4 4 4 4 3 4 4 4 2 1 2 5 5 5 6 6 6 6 6 6 5 4 4 6 6 6 6 6 6 6
4 5 5 5 4 4 4 4 5 5 4 4 3 3 3 3 3 4 4 4 3 2 2 3 2 2 2 5 3 4 2 2 3 4 3 4 4 2 1 3 3 3 1 0 1 1 2 3 3 3 3 2 1 2 1 3 5 5 4 4 3 3 2 2 2 1 2 3 4 4 5 4 6 6 6 5 5 5 7 8 7 6 6 5 5
3 3 3 4 4 4 3 3 3 1 3 3 3 4 5 5 4 3 4 4 3 2 1 3 2 2 2 3 2 3 2 3 3 5 3 4 4 3 1 1 2 3 2 0 0 0 0 1 2 2 1 1 1 2 3 4 3 4 5 3 3 3 2 2 3 1 1 2 3 4 1 2 2 4 4 5 5 6 6 8 7 6 7 5 5
4 3 4 4 4 3 4 4 3 3 4 5 5 5 4 5 5 5 6 4 4 3 2 3 3 2 2 2 2 3 2 1 3 4 3 3 5 3 3 2 2 3 2 1 1 1 1 0 1 1 1 2 2 2 3 2 2 3 4 4 2 2 3 2 2 1 2 5 1 1 2 2 3 3 3 2 4 5 6 7 6 6 6 6 5
2 4 4 4 5 4 3 3 2 3 3 3 3 3 3 5 5 4 5 5 5 4 4 4 3 3 4 3 3 3 2 4 4 5 4 3 4 4 6 3 3 4 3 3 3 2 2 3 3 2 2 3 3 3 2 1 2 1 1 4 4 2 4 2 2 1 1 0 3 3 2 0 2 4 4 1 2 4 4 5 6 7 7 5 5
1 1 2 3 3 5 4 4 5 4 4 4 3 3 3 5 5 6 4 4 5 3 1 2 2 1 3 5 6 5 6 6 6 5 7 7 6 5 6 5 4 3 4 4 3 3 3 3 3 4 3 4 4 4 3 2 2 2 3 3 2 2 1 2 3 2 2 0 2 2 4 2 4 4 2 2 3 3 5 6 7 7 6 5 4
3 1 0 2 3 4 4 4 4 4 4 4 4 3 3 3 4 3 4 4 4 3 2 0 1 1 1 1 2 3 4 5 4 4 5 6 5 7 6 5 4 4 4 4 3 3 3 3 3 3 3 4 3 4 4 4 3 2 1 1 2 3 2 3 4 3 3 1 0 2 3 3 6 6 3 2 2 2 3 7 7 7 6 6 6
4 5 5 2 1 0 2 4 4 4 4 4 4 4 4 4 4 4 3 3 3 3 3 4 4 3 4 3 2 3 3 6 6 6 5 4 5 6 5 6 5 4 5 5 4 4 4 4 3 3 3 4 3 5 5 4 3 2 2 1 1 2 2 0 3 0 1 3 1 2 1 3 4 2 5 4 4 5 4 7 7 6 7 7 7
4 5 6 6 6 5 3 3 3 3 3 4 4 4 3 3 4 4 5 4 6 7 6 5 3 2 2 2 5 4 3 5 5 5 5 5 6 6 5 6 5 5 4 5 5 5 4 4 4 4 4 4 3 4 4 3 4 4 3 2 1 1 1 2 1 2 1 2 3 1 3 3 2 2 3 2 3 5 4 5 4 3 6 6 5
4 3 3 4 5 5 5 4 4 4 3 2 3 3 4 3 5 5 6 5 5 5 4 4 4 4 5 4 4 6 5 5 4 6 6 5 6 6 6 6 6 6 5 4 5 6 5 4 5 5 5 5 3 4 4 4 4 3 3 4 3 2 2 3 3 2 2 2 2 2 2 2 3 2 2 4 3 1 5 6 6 7 4 2 3
5 5 4 4 3 3 4 5 5 6 5 5 5 5 5 5 5 7 6 5 6 6 6 7 5 4 5 5 5 7 7 6 7 7 7 7 7 7 6 6 5 6 5 5 5 5 5 5 5 6 5 5 4 4 5 5 5 4 4 4 3 2 3 3 3 2 2 2 1 2 2 2 2 3 2 1 2 4 5 6 5 3 4 5 3
6 7 8 7 8 8 6 7 7 6 6 7 6 6 6 6 6 8 8 8 7 5 6 7 6 6 5 5 7 7 7 6 7 8 7 8 7 7 7 7 6 6 5 6 6 6 5 6 5 5 5 5 6 6 5 5 5 4 4 4 3 3 3 3 3 3 2 1 2 2 3 5 4 3 4 6 6 4 7 7 6 4 4 3 3
7 6 7 7 7 7 8 7 7 8 7 7 7 6 6 6 7 7 8 7 7 7 7 7 7 7 6 6 6 6 6 6 6 7 7 7 7 8 8 7 7 7 7 6 7 7 6 6 7 6 6 6 6 6 5 5 5 5 5 5 4 3 3 3 1 1 3 3 3 3 2 2 3 2 2 4 1 5 7 7 3 2 3 4 3
6 6 6 6 6 6 5 5 6 6 7 8 7 7 7 6 7 6 7 7 6 6 7 7 8 8 7 7 7 6 7 6 6 6 7 6 6 6 6 6 7 7 8 8 8 7 6 7 7 7 4 6 7 7 6 6 5 6 5 5 5 3 3 3 3 2 2 4 2 3 3 3 2 2 3 4 5 6 6 9 7 3 3 4 1
6 6 5 5 6 5 5 6 6 6 7 7 7 7 6 7 7 7 8 8 7 6 6 7 7 7 7 7 6 6 6 7 6 6 6 7 7 7 7 6 6 7 7 8 9 8 8 7 6 4 7 7 7 7 6 5 6 5 5 5 4 3 4 4 3 2 2 4 4 4 3 3 3 3 4 4 5 7 8 9 10 8 3 2 1
6 6 7 7 5 6 6 6 6 6 7 7 8 7 7 6 5 6 6 7 8 8 8 9 9 8 9 10 9 8 7 7 7 7 7 7 8 8 8 7 7 7 8 8 9 7 8 7 6 8 8 8 8 8 7 6 6 6 5 4 5 3 4 4 3 4 3 3 4 3 3 4 4 4 4 4 5 5 6 7 9 9 9 4 1
6 6 6 7 7 7 5 6 6 7 7 6 6 5 6 6 7 8 7 7 8 8 7 7 7 8 9 8 9 10 10 10 9 10 10 8 7 7 8 8 8 7 8 8 9 9 7 7 7 8 8 7 7 6 5 6 6 6 6 5 5 5 4 5 4 4 4 3 3 5 5 4 4 4 3 3 4 4 5 6 8 9 7 7 5
4 5 5 5 5 6 7 6 5 6 6 7 7 5 5 5 6 7 8 9 9 8 9 8 10 10 11 11 11 10 9 9 9 10 9 9 10 9 8 8 8 8 8 8 9 10 9 7 6 7 6 5 5 5 6 6 6 6 6 5 5 5 5 2 3 3 4 3 2 3 3 3 3 4 3 3 4 5 6 6 6 4 6 9 6
8 7 7 8 7 7 7 7 6 6 5 5 5 6 6 6 5 5 6 5 5 6 8 9 9 8 8 9 9 10 10 9 9 9 9 9 10 10 10 10 10 9 9 9 8 9 9 9 7 7 6 7 6 6 6 6 6 6 5 5 4 5 5 4 3 3 4 3 3 3 2 3 3 4 4 3 3 4 5 6 5 5 3 5 8
5 6 6 6 7 7 7 7 7 6 6 6 7 8 10 8 9 9 9 9 9 10 8 9 8 8 10 10 11 10 10 9 9 9 10 10 10 10 11 11 11 10 10 10 9 9 9 10 9 7 8 6 6 7 7 8 7 6 6 5 5 5 4 4 4 3 4 4 3 3 2 2 2 4 4 3 4 3 4 5 5 5 4 4 5
5 6 6 8 8 8 9 7 7 7 7 8 8 8 7 8 9 8 8 9 10 8 8 7 7 9 10 11 11 11 12 10 11 11 11 11 10 10 10 10 10 11 11 12 12 11 10 9 10 9 8 7 7 7 7 7 6 6 6 6 6 6 5 4 4 3 3 4 3 3 2 2 2 4 4 4 4 4 4 4 4 5 5 5 5
5 6 6 7 7 8 8 9 10 10 10 10 8 9 10 9 8 9 10 10 9 9 8 7 7 8 10 10 11 10 10 11 11 11 12 11 11 11 10 10 11 11 10 11 12 11 10 9 6 8 8 7 5 5 6 4 5 6 6 5 5 6 5 4 4 4 4 2 3 4 3 2 2 5 4 4 5 5 4 5 5 5 6 6 4
5 5 6 6 6 5 7 8 9 9 9 9 8 8 8 8 9 8 10 10 8 8 7 7 8 10 11 11 11 11 11 12 12 11 12 12 11 11 10 10 11 10 10 9 10 11 11 9 9 8 8 5 2 5 5 4 5 6 7 6 5 5 5 5 4 5 5 3 4 4 4 2 2 4 3 3 3 5 5 5 6 4 5 6 5
5 5 5 5 6 7 9 9 9 9 9 9 8 9 10 10 10 10 12 12 12 10 10 10 10 10 10 10 10 10 12 12 12 11 12 12 11 11 10 11 11 10 10 10 10 11 11 10 9 9 5 7 7 5 5 4 4 5 5 6 7 6 5 5 5 5 5 5 5 5 4 4 4 4 3 3 2 4 5 4 5 4 4 5 4
7 7 7 10 11 11 9 9 10 10 10 10 10 10 10 10 10 10 10 10 10 9 10 10 10 12 12 12 13 11 12 12 11 10 11 12 11 11 11 11 11 12 12 10 10 10 11 11 11 9 5 5 7 6 5 4 4 3 4 3 4 5 5 6 6 5 5 5 5 6 6 4 5 5 2 3 3 4 4 4 4 4 4 5 4
6 7 9 9 6 7 9 8 8 8 8 8 9 8 8 8 9 7 9 9 9 8 8 9 10 11 11 13 11 12 12 12 11 11 11 11 11 12 12 11 11 12 12 11 10 10 10 11 12 11 8 7 7 6 4 3 5 4 4 4 4 5 6 6 5 5 5 5 5 5 5 5 5 5 4 3 3 4 3 4 4 5 5 5 5
7 5 4 6 9 9 7 7 6 6 6 7 8 9 8 8 10 9 8 8 8 8 8 9 10 10 11 11 11 11 10 10 10 10 9 11 12 12 12 12 11 11 11 11 11 11 10 10 11 11 10 10 8 5 2 4 3 4 4 4 5 7 7 5 4 5 5 5 4 4 5 5 5 4 5 5 4 3 3 4 5 5 5 6 6
5 6 7 7 5 6 8 7 8 8 7 8 7 8 8 8 9 9 9 9 8 8 9 10 10 11 11 11 10 9 9 10 10 10 10 11 11 12 12 11 11 12 11 11 10 10 9 8 9 10 11 9 9 8 6 5 2 3 4 5 4 4 3 3 3 3 4 4 4 4 5 5 4 5 4 4 4 3 3 3 4 5 5 7 6
7 5 5 6 7 6 6 7 7 7 9 8 8 8 7 8 8 8 8 9 8 8 9 9 10 11 10 9 9 8 8 9 10 10 11 11 11 11 12 12 11 11 10 11 10 10 10 11 10 10 11 11 9 7 6 5 2 2 4 4 5 4 4 3 4 3 3 4 4 3 3 4 3 2 2 2 3 3 4 4 4 6 6 6 6
5 4 4 5 5 5 5 6 8 8 8 8 7 7 7 7 8 8 9 9 8 8 8 10 10 9 9 9 9 9 10 10 11 11 10 10 10 11 11 12 12 11 11 11 12 11 10 10 10 11 11 10 10 7 9 12 5 3 3 4 5 5 4 4 4 4 3 3 4 3 2 4 4 4 4 5 4 3 3 3 6 7 7 7 7
4 4 5 4 5 5 6 7 7 7 6 5 4 4 5 7 8 8 8 7 6 8 9 9 9 8 9 9 10 10 9 11 10 10 10 11 11 10 11 12 12 12 12 12 10 11 11 10 10 10 11 11 10 9 13 11 9 7 4 3 4 3 3 4 4 5 5 5 4 3 1 3 5 5 5 6 6 6 4 3 6 7 7 8 8
4 4 5 6 7 7 7 6 6 6 6 7 7 6 8 8 7 8 6 5 7 8 8 9 9 10 11 11 11 11 11 11 11 12 11 10 10 11 12 12 12 14 12 11 12 12 11 11 10 11 11 11 10 16 14 11 9 9 6 3 2 4 4 4 4 4 4 5 6 4 3 3 2 4 5 5 6 7 7 7 7 5 5 5 6
4 5 5 5 5 4 5 5 5 7 7 7 5 8 9 7 8 7 6 9 9 9 9 11 11 11 12 11 11 11 11 11 12 11 10 11 11 12 12 12 13 11 11 12 12 12 12 11 11 11 11 11 9 18 20 15 9 9 7 5 3 1 4 4 3 4 5 6 6 5 4 3 3 6 5 4 5 5 7 10 10 9 7 5 2
4 4 4 4 3 5 5 5 5 5 6 4 6 6 5 4 5 6 8 8 9 10 10 10 10 11 11 10 11 12 12 12 11 11 11 11 12 12 11 10 10 12 12 12 13 13 12 12 11 11 10 10 10 17 19 19 14 9 3 5 2 3 2 5 3 3 4 5 6 6 6 5 3 4 3 4 4 5 4 5 6 6 5 6 6
5 4 4 4 4 5 6 7 7 6 5 6 7 6 4 8 8 8 8 9 9 9 10 10 10 10 10 11 11 11 11 11 11 11 10 11 11 11 12 11 10 9 10 10 10 11 11 11 12 11 10 11 11 18 18 19 15 8 5 5 3 4 4 5 5 3 2 4 6 5 6 6 5 4 3 4 5 5 5 5 5 6 5 5 4
4 5 4 5 5 5 5 5 3 5 6 6 5 4 7 7 7 8 8 8 8 10 11 11 11 11 11 11 11 10 10 10 11 11 11 11 12 11 11 11 10 11 10 10 11 11 12 13 12 11 11 12 12 19 21 21 17 9 4 2 3 2 2 2 5 2 3 3 3 5 6 6 6 5 5 5 4 5 5 5 5 4 4 4 4
3 5 5 4 5 6 5 4 5 7 7 7 5 6 8 9 10 9 8 9 10 11 11 11 10 11 11 11 11 11 11 11 11 11 11 11 11 11 11 9 11 11 10 11 11 10 9 10 11 11 12 11 11 15 19 21 21 15 4 3 1 3 3 3 4 3 2 3 4 5 5 6 6 5 6 7 6 5 5 4 4 4 3 4 4
4 4 5 6 5 6 5 6 7 8 7 5 6 6 8 9 9 9 9 10 11 11 10 10 10 11 11 11 11 11 11 10 11 11 11 10 10 9 10 9 9 10 10 10 10 10 9 9 10 11 11 11 11 14 18 18 20 20 10 4 2 3 2 2 2 3 2 3 5 8 6 7 7 6 9 9 7 5 5 4 4 4 3 3 3
4 5 7 6 6 6 5 7 8 8 7 6 5 6 9 9 8 9 9 10 10 10 10 11 10 10 10 10 10 10 10 10 11 11 10 10 10 9 9 9 9 9 9 9 9 10 10 10 10 11 15 13 11 13 17 18 17 21 14 5 3 1 2 4 5 3 2 2 3 6 8 7 7 8 12 10 8 5 5 5 4 3 3 3 2
4 6 6 6 4 7 10 10 8 6 5 5 4 8 9 8 8 7 9 10 9 8 8 8 8 9 9 9 8 10 9 10 10 10 10 9 9 9 10 9 10 8 8 9 9 9 11 10 10 10 10 11 11 11 15 18 17 18 19 9 4 4 4 4 5 5 4 2 3 4 5 8 7 11 12 11 9 7 6 5 4 4 4 5 3
6 6 5 8 8 9 8 6 4 4 4 4 5 9 9 7 7 9 10 9 8 7 8 8 8 8 9 9 9 9 10 9 9 9 9 9 8 9 9 10 10 10 10 10 12 11 11 11 10 10 9 10 10 12 13 17 17 18 20 15 6 5 5 5 5 4 5 4 2 4 5 7 9 10 12 12 11 8 5 6 5 5 5 3 6
5 6 6 8 7 7 7 7 6 6 5 6 7 8 6 7 8 10 9 8 7 7 7 8 9 9 8 9 9 10 9 8 9 9 10 9 9 9 9 10 9 9 11 11 11 12 11 12 11 10 10 11 12 15 13 15 17 18 18 20 10 7 6 6 5 4 2 0 2 2 4 6 11 11 11 12 11 9 8 4 6 1 4 9 7
7 6 4 7 8 8 7 4 4 5 7 7 7 7 6 6 9 8 8 7 7 7 8 8 8 8 8 9 9 10 9 8 9 10 9 10 9 9 10 10 10 10 11 11 11 11 11 12 12 12 11 12 13 12 16 15 18 17 17 17 17 11 7 5 4 1 2 2 1 1 2 3 10 11 11 11 11 10 6 4 4 6 7 8 7
5 5 5 7 8 6 5 4 5 6 7 6 6 6 6 8 9 7 7 6 7 7 7 8 7 8 8 9 9 9 9 9 11 10 10 9 10 10 9 10 10 10 10 11 11 10 13 13 14 13 14 13 12 12 14 17 18 18 16 15 17 15 8 4 5 3 2 2 1 1 1 1 6 9 11 11 11 9 7 6 7 7 9 7 5
7 6 4 5 7 6 5 6 6 6 6 5 5 6 6 9 7 7 8 7 7 7 7 8 9 9 9 8 8 8 9 9 9 9 10 11 11 10 9 10 10 10 10 9 9 11 12 11 11 11 10 11 13 13 13 15 20 20 18 15 16 16 9 4 3 3 3 3 2 2 2 5 4 3 6 9 8 8 6 7 8 9 7 4 5
7 6 5 6 6 6 6 6 5 5 5 5 5 6 8 6 6 7 7 7 7 7 7 9 8 8 9 8 8 8 8 9 10 9 9 8 9 10 9 8 8 9 9 9 10 11 11 11 10 11 12 12 13 13 14 14 15 18 16 18 16 12 7 5 3 1 2 6 7 3 7 8 8 6 4 4 6 6 6 7 8 7 4 5 5
8 6 6 6 6 6 5 4 4 4 5 5 5 5 4 5 6 7 7 7 6 6 7 7 8 8 8 8 9 8 8 8 9 9 9 9 9 9 9 9 7 9 9 9 9 11 11 11 11 12 12 13 13 13 14 13 15 14 14 12 12 9 6 4 4 3 2 5 6 6 5 6 6 7 5 3 4 6 6 4 4 3 4 5 5
5 5 6 6 6 6 4 3 4 3 4 4 4 5 5 6 6 7 7 7 5 6 7 7 8 7 7 8 8 12 11 8 9 9 9 9 10 10 9 8 8 9 9 9 9 11 11 11 10 11 11 12 13 13 14 16 15 15 13 12 10 8 7 4 3 4 5 4 6 6 8 6 4 4 4 4 3 3 3 4 4 3 3 2 3
8 5 5 7 5 5 3 3 3 3 3 4 4 5 6 7 7 6 6 6 5 5 6 7 6 7 7 7 7 8 9 9 9 9 9 8 9 9 9 8 10 10 9 7 8 10 11 10 9 9 11 12 12 14 14 16 15 17 15 12 10 10 8 5 3 3 3 4 3 7 7 6 4 2 3 4 3 3 3 3 4 4 3 4 4
5 6 5 5 4 4 4 3 3 3 3 4 5 6 6 6 6 6 6 6 6 5 6 7 6 7 7 7 7 7 8 9 9 8 9 10 11 10 9 8 8 13 16 13 8 9 11 11 10 9 8 9 10 10 17 21 22 22 22 20 17 16 15 9 5 5 3 4 5 5 6 6 4 3 2 1 2 4 4 3 2 2 4 4 4
7 8 5 5 4 3 3 3 3 3 3 4 5 6 6 7 6 6 6 6 6 5 5 6 6 7 8 8 7 7 7 7 8 9 9 10 10 10 10 10 12 12 13 15 11 14 17 18 13 11 11 11 15 18 21 22 23 23 22 21 18 17 16 15 12 6 5 4 4 5 4 4 3 3 2 2 2 1 3 3 3 3 2 4 4
Wind_Direction
309 307 341 17 27 6 8 20 4 352 41 20 28 12 7 337 348 354 324 339 14 359 352 1 344 334 349 10 307 280 286 325 320 310 310 303 320 23 19 339 334 329 356 55 54 2 353 2 354 354 3 27 52 30 320 339 3 357 358 12 42 56 52 44 68 84 101 69 55 66 61 54 62 64 69 67 36 72 86 87 85 85 81 78 73
356 15 6 18 15 9 10 24 25 27 344 0 14 327 322 345 9 323 332 335 6 341 291 307 254 241 256 276 271 276 292 286 305 326 320 317 317 338 26 324 321 310 315 116 114 60 350 1 2 329 338 355 18 337 348 14 17 28 14 12 25 61 9 314 303 19 35 128 123 83 65 49 62 70 70 63 72 75 98 105 98 93 86 79 74
351 356 1 3 3 8 20 24 15 342 301 335 332 348 358 349 336 330 325 337 332 307 277 290 266 254 199 257 212 284 250 222 223 249 273 287 290 286 245 296 294 298 305 273 116 26 123 348 358 298 321 309 106 29 20 30 12 32 44 74 334 11 337 294 337 353 129 114 73 104 125 91 72 68 62 76 99 104 110 111 104 91 89 86 77
3 333 333 341 349 355 9 10 343 350 6 354 354 350 342 344 338 338 332 333 317 306 291 275 245 237 238 245 259 213 260 285 268 267 289 313 292 281 271 210 227 252 263 206 185 186 199 175 195 126 191 162 164 118 62 25 9 28 49 52 115 8 354 306 348 16 146 140 159 7 133 144 135 113 110 59 109 113 120 114 102 96 88 72 65
23 349 345 350 358 346 325 309 325 15 347 346 335 336 325 315 313 319 319 316 310 318 321 309 333 2 350 343 357 348 344 355 351 320 303 279 279 275 262 229 222 238 245 223 193 212 202 183 162 172 173 161 148 137 143 213 269 240 161 75 67 108 344 311 314 45 147 124 134 118 64 107 233 136 140 38 104 117 117 106 97 91 79 70 71
76 13 320 306 320 334 346 349 6 349 354 330 318 304 314 321 332 335 333 331 326 323 309 51 41 12 2 6 348 350 331 333 328 312 318 316 295 295 298 267 255 251 249 229 207 201 210 183 177 158 152 170 176 180 182 175 268 287 249 141 141 179 185 20 328 319 33 334 201 182 167 202 166 153 116 176 338 48 106 75 74 74 76 72 57
5 59 65 15 341 348 339 349 339 342 332 329 327 327 328 332 333 324 313 314 317 318 298 224 1 23 2 308 265 273 288 274 251 272 274 285 296 293 284 297 275 262 266 245 230 229 221 192 181 179 170 185 179 160 182 197 207 185 295 156 186 143 126 5 323 287 332 135 335 270 220 179 171 153 201 128 131 51 63 88 62 60 66 55 50
351 346 351 360 333 103 315 305 319 314 309 333 350 353 359 344 335 333 315 313 315 328 350 352 335 329 349 347 301 281 254 268 282 284 273 269 287 282 291 284 284 255 257 263 240 238 222 216 195 173 177 190 181 187 193 203 200 184 154 172 244 169 171 57 286 76 65 281 350 37 90 139 160 16 155 161 145 140 85 64 64 48 54 48 45
0 357 350 344 337 331 329 320 295 298 329 339 327 320 324 342 338 342 343 337 354 11 9 4 3 341 320 316 317 297 280 287 301 305 307 313 300 293 287 282 282 272 245 252 253 238 231 210 202 203 202 217 194 188 197 180 197 187 165 156 150 255 192 150 134 247 139 230 318 30 66 80 71 59 87 94 139 147 136 118 109 68 64 54 47
5 3 350 348 338 330 328 317 338 337 315 301 310 328 349 352 354 342 330 355 10 7 352 336 1 357 356 335 325 313 322 316 325 319 322 319 315 311 311 308 303 301 284 259 260 246 244 222 200 204 209 212 208 197 182 190 191 190 195 184 168 178 267 180 183 197 183 210 222 225 114 93 84 66 68 105 72 57 156 159 158 154 128 51 68
4 5 12 356 331 339 345 354 330 336 343 350 352 353 346 360 351 341 334 347 7 343 337 336 343 353 341 337 328 324 324 325 329 326 325 327 325 319 317 311 305 288 289 279 260 266 257 237 217 216 214 210 205 196 207 206 209 193 194 189 180 172 173 184 185 202 159 155 169 172 180 183 180 164 191 347 137 137 127 144 149 111 128 126 55
8 17 9 10 12 9 9 7 356 343 353 358 349 350 352 349 359 346 342 346 341 338 339 343 342 337 340 333 328 325 324 323 321 316 316 314 315 314 315 317 312 308 295 286 273 248 237 241 232 233 226 222 216 206 205 207 206 178 174 202 201 188 185 164 161 202 190 138 167 168 193 195 199 184 193 173 183 170 151 149 140 122 96 67 114
15 7 11 13 14 5 5 360 5 4 358 351 350 348 354 357 1 358 347 348 334 333 349 341 345 343 342 333 325 324 324 320 314 311 308 308 309 312 315 313 313 316 309 298 279 261 242 232 224 219 226 223 226 211 212 205 197 186 190 195 175 193 201 165 152 202 206 206 201 176 191 163 209 211 180 181 130 116 130 122 100 101 128 138 158
13 13 17 17 10 4 8 11 10 6 6 5 2 8 4 7 4 13 355 358 354 340 341 347 343 337 334 332 330 332 327 326 318 312 309 302 299 296 297 297 300 294 295 289 280 279 256 241 225 218 224 246 237 220 211 204 193 193 195 194 195 192 155 180 181 177 206 225 197 182 182 170 201 217 200 152 150 134 146 150 139 60 96 138 123
16 20 19 14 9 13 16 19 18 16 15 14 15 16 19 22 19 19 13 3 8 1 350 350 343 341 340 337 336 339 332 330 325 315 310 313 310 304 297 294 290 291 288 286 288 279 268 252 238 191 225 223 235 227 213 196 197 199 195 202 188 187 169 167 182 146 195 205 194 205 167 160 164 191 181 191 177 173 152 155 143 128 93 115 122
17 20 12 12 13 19 22 17 18 19 17 19 20 17 24 21 25 29 22 8 8 9 8 3 358 355 359 357 352 349 344 337 333 333 326 320 314 310 307 303 298 295 293 291 285 280 275 265 230 219 218 217 219 214 206 196 194 195 204 180 187 185 172 180 187 172 206 207 196 172 171 171 157 170 191 188 194 175 152 157 155 151 146 163 171
24 22 13 8 10 12 17 17 18 19 22 23 23 21 25 24 26 25 19 19 15 9 8 5 1 6 3 1 360 358 356 354 345 338 334 328 321 316 310 307 301 299 298 297 295 292 283 270 247 240 230 222 219 214 207 208 192 198 196 186 188 196 184 201 162 189 226 203 166 181 197 172 161 163 174 188 186 166 166 167 168 169 161 136 165
30 32 29 28 24 18 9 13 19 25 26 25 23 19 26 27 26 26 22 18 8 10 9 9 8 10 6 6 4 4 359 354 352 347 344 341 340 336 330 326 323 313 307 305 304 301 299 285 261 253 249 248 236 212 203 228 201 199 198 195 191 166 179 149 186 185 202 199 158 163 165 182 151 151 166 180 182 179 159 173 182 159 159 148 153
30 25 24 22 22 19 17 14 17 27 26 29 23 24 27 23 20 31 23 12 11 14 12 11 14 7 6 1 2 360 359 355 351 348 349 350 347 344 340 332 328 327 321 315 307 302 300 293 274 266 251 234 216 211 203 220 209 190 192 188 177 167 166 174 201 176 197 166 161 156 191 154 139 129 130 158 186 165 168 161 167 149 149 140 147
32 27 28 28 29 29 28 24 22 18 25 20 23 24 23 14 17 10 8 10 11 12 8 11 2 7 1 3 2 360 357 355 349 351 352 353 347 345 342 341 337 330 329 324 315 308 304 304 301 277 264 258 236 226 207 210 198 190 182 182 186 170 162 168 183 196 176 151 147 166 173 132 114 126 125 147 172 175 152 163 157 152 131 135 137
32 32 29 30 27 25 24 24 25 26 24 20 15 19 17 16 15 10 12 5 3 359 2 3 3 4 9 9 3 1 357 353 351 352 353 350 348 348 346 339 335 342 338 335 331 325 320 313 309 309 285 253 245 241 217 209 196 191 189 189 177 185 174 182 178 168 155 152 144 136 167 115 137 130 133 138 155 164 146 151 145 133 139 161 145
41 33 35 31 29 26 25 27 28 29 22 20 15 24 24 22 14 15 18 18 3 360 358 356 5 14 20 11 6 4 0 358 357 354 353 349 346 345 341 341 344 337 341 338 336 332 325 323 307 303 297 290 299 302 299 273 212 196 196 177 188 194 185 178 182 187 187 141 151 143 161 111 97 121 135 136 146 161 161 154 170 159 159 176 188
42 40 33 34 37 38 41 39 35 33 30 29 30 31 28 24 22 21 26 16 16 10 4 6 12 20 16 11 10 6 360 1 359 356 352 348 342 338 342 344 341 337 335 339 333 331 331 329 317 319 313 313 303 279 251 241 264 226 196 189 187 202 185 179 195 213 202 162 146 161 182 158 121 104 111 130 154 164 166 170 172 172 168 175 182
44 44 40 39 41 39 39 34 35 34 31 29 26 26 26 25 22 24 24 16 19 17 16 19 15 18 17 14 10 0 2 359 0 354 352 346 342 339 339 345 340 336 338 336 337 334 334 336 331 330 333 313 293 281 267 218 205 256 261 207 182 198 205 192 193 202 186 182 176 154 195 166 154 119 110 124 119 164 174 171 169 171 152 148 163
47 44 41 39 34 31 26 24 24 21 25 23 23 23 22 19 21 20 16 15 17 13 18 18 16 14 13 11 6 2 1 360 357 352 351 347 344 341 342 345 342 340 337 337 339 342 338 340 338 338 330 288 286 283 282 281 259 215 223 246 238 207 202 204 199 193 181 177 184 187 176 169 159 128 149 117 110 161 179 181 174 155 134 141 141
56 49 44 40 34 33 30 25 22 22 23 23 23 23 21 20 19 17 16 11 11 8 15 20 18 17 11 9 2 1 359 351 349 351 350 346 347 351 345 343 346 339 336 338 343 342 343 339 337 335 320 293 271 273 278 275 280 254 203 206 225 238 221 205 198 185 167 164 180 181 167 168 159 156 182 155 147 146 166 185 177 164 140 142 146
57 56 50 47 39 32 31 29 28 29 25 27 26 20 19 17 16 15 13 14 10 12 15 22 18 19 13 6 0 355 350 348 348 345 346 354 354 349 348 345 341 339 339 340 342 342 344 340 338 336 329 312 293 274 232 246 242 245 245 205 202 222 215 202 191 183 161 152 156 158 163 167 168 178 162 178 166 149 159 188 185 158 141 136 141
64 53 50 52 44 36 32 23 24 21 24 32 28 24 19 18 15 9 10 14 8 10 19 21 19 18 13 2 356 347 350 347 348 350 354 355 352 349 346 343 345 346 341 338 339 339 336 342 344 343 336 321 302 299 289 258 204 210 224 230 229 235 233 217 184 161 151 150 154 164 166 175 182 184 175 167 164 160 150 155 169 147 145 137 140
57 52 52 50 45 35 29 26 20 20 25 21 22 18 17 17 16 12 14 16 1 12 18 19 19 17 4 353 349 349 346 349 349 351 355 352 348 347 348 348 349 347 343 337 337 343 343 345 349 350 342 334 320 300 278 276 236 221 203 220 227 235 224 202 173 147 128 130 135 158 171 179 199 184 195 155 169 151 146 152 163 160 145 142 133
63 54 51 48 44 37 32 28 23 21 16 16 16 19 17 18 14 10 16 6 6 9 19 19 20 8 357 353 350 351 351 350 354 353 349 347 349 349 349 351 351 348 344 344 345 345 346 348 347 350 347 341 335 321 308 297 266 234 218 218 219 225 213 179 166 149 128 122 132 139 182 201 172 133 113 91 102 135 169 184 162 166 152 149 145
66 56 46 47 42 37 33 31 23 18 14 11 9 10 18 27 17 15 13 360 5 17 22 21 13 3 359 357 359 355 351 356 350 349 350 350 349 348 352 355 351 349 350 348 343 350 351 346 348 348 348 347 340 340 333 319 308 295 271 272 273 256 214 187 180 171 165 152 139 128 224 175 133 113 91 87 86 75 81 163 178 177 167 159 147
72 58 51 41 37 30 27 22 15 16 15 18 15 17 28 20 10 14 357 357 21 22 19 15 10 6 8 4 359 354 357 355 354 353 350 346 348 354 356 353 353 352 345 343 354 352 350 351 348 351 350 350 348 348 340 324 322 302 291 265 234 263 250 209 178 176 158 150 144 139 108 86 114 138 116 102 87 81 81 87 116 151 174 196 182
78 70 60 48 42 33 29 20 22 16 17 11 13 32 26 8 13 360 3 21 19 19 14 15 10 9 6 2 358 357 356 357 355 351 350 352 353 357 358 354 350 342 342 355 351 351 353 349 353 351 348 348 353 355 352 339 328 310 276 229 253 274 279 265 189 173 163 150 142 136 134 106 161 126 107 101 98 81 68 75 77 82 79 91 148
87 80 76 59 42 35 28 31 25 18 21 11 30 36 18 11 14 9 21 14 20 18 18 12 8 7 2 359 359 359 358 355 351 351 351 355 358 355 350 350 349 351 353 349 349 350 348 352 349 349 344 347 355 358 353 355 357 349 24 85 53 23 322 298 272 195 166 161 161 155 150 156 137 106 122 109 96 88 78 62 56 51 60 48 51
110 88 73 68 59 39 33 27 19 14 17 24 27 16 14 28 14 19 16 17 17 17 16 11 8 1 1 1 360 357 352 351 349 351 352 356 358 353 353 352 349 349 347 344 339 340 346 347 347 346 349 354 355 355 360 358 356 7 35 105 87 63 23 336 325 314 272 187 174 169 163 158 154 151 172 144 120 110 90 79 74 65 58 53 52
132 111 83 65 51 52 42 32 14 32 30 31 22 4 36 26 19 23 13 15 14 18 15 8 5 2 2 359 356 352 349 349 350 351 354 356 355 353 350 346 345 345 347 348 348 353 350 344 339 344 355 1 351 355 359 1 0 13 358 30 86 78 79 19 307 329 294 262 206 173 159 159 159 160 172 150 121 116 95 85 77 63 71 70 70
135 101 87 74 66 58 41 46 46 39 33 20 5 23 36 28 22 12 11 12 16 17 10 4 2 359 358 356 354 352 349 350 350 352 353 354 353 349 347 348 346 347 346 348 345 342 337 337 340 347 353 358 349 354 359 0 360 360 5 359 51 75 48 42 315 293 241 267 251 190 173 159 153 168 164 147 145 119 100 92 78 63 38 55 51
104 82 74 64 60 61 47 58 53 42 24 9 11 25 38 32 18 9 11 14 17 11 2 1 0 358 356 355 354 352 349 350 351 353 349 349 350 346 346 346 347 343 343 342 337 336 339 343 343 346 349 351 346 350 357 1 360 356 344 336 319 74 94 131 274 295 270 235 250 228 180 163 164 168 162 159 157 130 112 116 116 103 62 47 14
87 92 82 68 61 67 63 54 48 38 4 2 4 26 41 30 17 8 12 16 11 2 2 1 357 355 353 354 352 352 352 350 353 352 349 350 351 345 335 342 346 345 343 339 344 345 341 345 347 343 344 355 350 348 353 356 359 358 349 320 312 255 157 252 246 240 174 177 261 260 209 182 175 160 161 166 164 145 135 146 149 111 121 208 222
88 66 74 74 67 68 52 45 38 15 348 355 2 40 38 26 12 6 16 10 360 355 354 355 355 355 353 353 352 353 352 353 351 351 349 350 346 345 346 345 346 349 344 342 345 348 347 340 338 342 345 349 348 351 349 349 356 357 353 330 297 296 283 252 228 224 228 204 200 241 240 190 175 159 164 168 173 158 152 139 130 147 153 234 180
93 91 86 77 65 70 69 54 28 359 356 1 27 44 31 16 10 16 11 355 344 347 357 358 356 355 354 354 353 355 352 351 351 350 346 346 350 348 344 351 349 348 350 350 352 349 346 343 340 342 342 350 355 351 348 349 353 357 354 350 299 286 282 287 283 251 217 194 211 230 252 184 173 168 168 173 175 170 151 148 163 172 202 171 133
85 93 94 86 78 71 63 47 21 12 12 20 32 43 25 13 15 14 353 338 342 353 360 358 358 358 354 354 354 355 354 351 350 351 352 353 351 351 352 352 353 351 353 352 354 354 349 344 342 345 351 349 354 359 352 350 354 354 354 352 339 304 301 297 295 273 275 250 197 269 253 197 173 170 173 175 176 171 169 159 199 202 118 128 128
100 84 78 100 87 73 62 47 15 20 24 23 29 38 23 17 21 357 339 342 349 356 1 358 357 358 356 356 354 354 353 352 354 355 352 354 351 353 354 356 357 356 356 356 355 353 353 350 347 347 350 351 352 355 358 353 352 352 349 348 345 330 307 313 316 287 105 97 315 281 287 247 187 169 173 174 174 171 172 201 155 129 138 124 112
78 98 106 99 94 86 76 43 28 28 27 22 24 28 23 23 8 337 342 346 354 359 358 359 357 355 356 0 359 356 353 355 356 355 354 356 357 357 357 0 358 360 360 359 0 358 360 357 352 349 353 352 349 351 355 358 351 348 346 346 341 332 298 291 304 289 199 185 241 251 156 112 224 184 166 171 167 168 187 157 132 138 134 123 104
114 103 97 93 104 98 81 51 30 25 16 20 20 30 26 19 348 346 352 355 355 359 359 1 357 353 354 351 353 353 357 355 353 353 356 358 355 358 1 0 359 4 8 5 360 1 3 353 351 349 341 346 351 351 354 354 352 345 346 348 340 335 315 331 338 338 7 358 9 337 134 126 158 225 170 152 160 180 167 137 139 145 137 107 109
101 100 105 107 96 83 74 63 30 17 13 15 18 28 32 354 341 354 354 354 354 359 2 359 351 350 348 345 349 352 0 358 357 356 357 354 355 0 2 357 1 6 5 1 356 4 3 354 350 346 345 346 353 354 354 352 353 346 343 344 341 338 324 297 329 102 39 45 27 58 104 112 122 134 149 154 166 168 145 138 151 151 113 126 123
125 139 125 104 98 84 77 67 47 6 10 9 16 18 14 352 358 354 354 352 352 3 360 351 350 348 346 348 351 352 2 4 3 356 356 359 358 356 0 359 354 1 1 0 3 8 7 360 355 349 346 348 353 358 353 349 348 344 340 339 342 341 355 340 323 343 21 63 44 36 60 70 95 115 98 82 97 110 108 120 155 139 124 135 150
122 129 116 103 99 103 98 77 52 3 5 5 9 7 359 0 356 358 353 350 355 4 1 348 348 349 348 349 350 346 358 2 2 358 356 351 356 356 354 358 356 2 3 1 11 13 9 2 352 355 355 355 358 358 356 347 337 336 332 338 344 347 344 327 336 9 358 12 88 78 66 66 65 83 91 96 80 75 103 120 146 139 135 128 115
126 128 122 121 126 116 108 85 53 5 12 12 6 1 2 2 358 357 357 356 359 359 354 350 350 356 357 354 352 352 358 357 356 356 354 352 356 353 351 346 357 6 10 16 17 23 11 359 356 359 1 1 360 357 348 334 333 340 348 347 342 342 338 338 0 85 54 356 358 75 64 56 49 17 99 119 108 119 98 95 128 133 135 135 132
122 117 120 115 115 119 110 89 49 26 23 19 9 3 360 359 359 357 360 8 356 353 2 358 359 2 358 357 356 354 357 358 354 351 350 348 350 350 351 360 353 1 4 23 48 35 20 1 1 4 4 4 357 342 336 346 353 354 353 357 358 358 358 357 31 59 45 53 21 23 67 66 49 40 12 23 134 151 141 133 115 136 138 142 153
133 120 114 119 120 111 105 85 58 42 28 15 13 5 358 357 1 357 5 6 354 5 6 360 3 8 2 358 353 353 356 358 355 352 354 359 349 344 351 355 0 11 7 2 25 29 22 17 10 357 356 358 356 356 0 360 359 359 357 358 4 7 8 4 9 14 20 44 57 50 26 53 77 70 46 39 351 318 164 136 149 149 158 165 165